Goshen, IN

9:06 PM EDT on April 25, 2017 (GMT -0400)
Goshen Municipal

Weather History for KGSH - January, 2013

Change the Weather History Date:

Thursday, January 10, 2013

  Actual Average Record
Temperature  
Mean Temperature 32 °F -  
Max Temperature 41 °F 27 °F 59 °F (1975)
Min Temperature 24 °F 14 °F -16 °F (1982)
Degree Days  
Heating Degree Days 32    
Moisture  
Dew Point 28 °F    
Average Humidity 78    
Maximum Humidity 89    
Minimum Humidity 57    
Precipitation  
Precipitation 0.46 in - - ()
Sea Level Pressure  
Sea Level Pressure 30.30 in    
Wind  
Wind Speed 7 mph (ESE)    
Max Wind Speed 20 mph    
Max Gust Speed 28 mph    
Visibility 8 miles    
Events Rain    
Averages and records for this station are not official NWS values.
T = Trace of Precipitation, MM = Missing Value Source: NWS Daily Summary

Daily Weather History Graph

Daily Weather History Graph

Search for Another Location

Airport or City:

Trip Planner

Search our weather history database for the weather conditions in past years. The results will help you decide how hot, cold, wet, or windy it might be!

Date:

Astronomy

Jan. 10, 2013 Rise Set
Actual Time 8:09 AM EST 5:32 PM EST
Civil Twilight 7:38 AM EST 6:03 PM EST
Nautical Twilight 7:03 AM EST 6:38 PM EST
Astronomical Twilight 6:30 AM EST 7:11 PM EST
Moon 6:48 AM EST (1/10) 4:40 PM EST (1/10)
Length of Visible Light 10h 25m
Length of Day
9h 23m
Waning Crescent, 2% of the Moon is Illuminated
Jan 10
Waning Crescent
Jan 11
New
Jan 18
First Quarter
Jan 26
Full
Feb 3
Last Quarter

Hourly Weather History & Observations

Time (EST) Temp. Windchill Dew Point Humidity Pressure Visibility Wind Dir Wind Speed Gust Speed Precip Events Conditions
12:53 AM 28.0 °F 21.7 °F 21.9 °F 78% 30.53 in 10.0 mi South 5.8 mph - N/A   Clear
1:53 AM 27.0 °F - 21.0 °F 78% 30.54 in 10.0 mi Calm Calm - N/A   Clear
2:53 AM 27.0 °F - 21.0 °F 78% 30.54 in 10.0 mi Calm Calm - N/A   Clear
3:53 AM 26.1 °F - 21.9 °F 84% 30.53 in 10.0 mi Calm Calm - N/A   Clear
4:53 AM 25.0 °F - 21.0 °F 85% 30.52 in 10.0 mi Calm Calm - N/A   Clear
5:53 AM 25.0 °F - 21.0 °F 85% 30.53 in 10.0 mi Calm Calm - N/A   Clear
6:53 AM 24.1 °F - 19.9 °F 84% 30.52 in 10.0 mi Calm Calm - N/A   Clear
7:53 AM 25.0 °F - 21.0 °F 85% 30.53 in 10.0 mi Calm Calm - N/A   Clear
8:53 AM 26.1 °F - 21.0 °F 81% 30.54 in 10.0 mi Calm Calm - N/A   Clear
10:53 AM 37.9 °F 31.5 °F 28.0 °F 68% 30.51 in 10.0 mi ESE 9.2 mph - N/A   Clear
11:53 AM 39.9 °F 32.5 °F 28.0 °F 63% 30.47 in 10.0 mi ESE 12.7 mph - N/A   Clear
12:53 PM 41.0 °F 32.8 °F 28.0 °F 60% 30.43 in 10.0 mi ESE 16.1 mph 24.2 mph N/A   Clear
1:53 PM 41.0 °F 34.7 °F 28.0 °F 60% 30.40 in 10.0 mi SE 10.4 mph 18.4 mph N/A   Clear
2:53 PM 41.0 °F 34.3 °F 27.0 °F 57% 30.37 in 10.0 mi SE 11.5 mph - N/A   Clear
3:53 PM 39.9 °F 32.5 °F 28.9 °F 65% 30.32 in 10.0 mi East 12.7 mph - N/A   Clear
4:53 PM 39.0 °F 31.4 °F 28.0 °F 65% 30.31 in 10.0 mi ESE 12.7 mph - N/A   Mostly Cloudy
5:53 PM 39.0 °F 32.3 °F 28.0 °F 65% 30.29 in 10.0 mi ESE 10.4 mph - N/A   Overcast
6:53 PM 37.9 °F 30.0 °F 30.0 °F 73% 30.27 in 10.0 mi ESE 12.7 mph - 0.01 in Rain Light Rain
7:53 PM 37.0 °F 28.9 °F 30.9 °F 79% 30.23 in 9.0 mi ESE 12.7 mph 23.0 mph 0.02 in Rain Light Rain
8:06 PM 37.4 °F 28.9 °F 30.2 °F 75% 30.18 in 8.0 mi ESE 13.8 mph - 0.00 in Rain Light Rain
8:53 PM 37.9 °F 28.9 °F 30.9 °F 76% 30.16 in 5.0 mi ESE 16.1 mph 24.2 mph 0.04 in Rain Light Rain
9:20 PM 37.4 °F 28.5 °F 30.2 °F 75% 30.13 in 10.0 mi ESE 15.0 mph - 0.00 in Rain Light Rain
9:46 PM 37.4 °F 27.2 °F 33.8 °F 87% 30.10 in 2.0 mi ESE 19.6 mph 26.5 mph 0.04 in Rain Rain
9:53 PM 37.0 °F 26.7 °F 33.1 °F 86% 30.12 in 2.5 mi ESE 19.6 mph 26.5 mph 0.04 in Rain Light Rain
10:05 PM 37.4 °F 28.2 °F 33.8 °F 87% 30.09 in 3.0 mi SE 16.1 mph 27.6 mph 0.02 in Rain Light Rain
10:17 PM 37.4 °F 27.5 °F 33.8 °F 87% 30.09 in 1.8 mi ESE 18.4 mph - 0.11 in Rain Heavy Rain
10:26 PM 37.4 °F 28.9 °F 33.8 °F 87% 30.08 in 2.0 mi ESE 13.8 mph 24.2 mph 0.16 in Rain Rain
10:38 PM 37.4 °F 28.9 °F 33.8 °F 87% 30.08 in 1.5 mi ESE 13.8 mph 21.9 mph 0.26 in Rain Heavy Rain
10:42 PM 37.4 °F 28.5 °F 33.8 °F 87% 30.08 in 2.0 mi ESE 15.0 mph 21.9 mph 0.28 in Rain Heavy Rain
10:53 PM 37.0 °F 27.7 °F 34.0 °F 89% 30.10 in 3.0 mi ESE 16.1 mph - 0.31 in Rain Rain
11:28 PM 37.4 °F 28.9 °F 33.8 °F 87% 30.05 in 4.0 mi ESE 13.8 mph - 0.03 in Rain Light Rain
11:53 PM 37.9 °F 30.0 °F 34.0 °F 86% 30.07 in 6.0 mi SE 12.7 mph - 0.04 in Rain Light Rain